Lumberton, NC

1:50 PM EDT on April 21, 2018 (GMT -0400)
Lumberton Municipal

Weather History for KLBT - January, 2013

Change the Weather History Date:

Sunday, January 6, 2013

  Actual Average Record
Temperature  
Mean Temperature 44 °F 43 °F  
Max Temperature 48 °F 53 °F 75 °F (2005)
Min Temperature 39 °F 33 °F 11 °F (2018)
Degree Days  
Heating Degree Days 22 22  
Month to date heating degree days 131  
Since 1 July heating degree days 1181  
Cooling Degree Days 0 0  
Month to date cooling degree days 0  
Year to date cooling degree days 0  
Moisture  
Dew Point 43 °F    
Average Humidity 93    
Maximum Humidity 100    
Minimum Humidity 71    
Precipitation  
Precipitation 0.08 in 0.09 in 0.79 in (2002)
Month to date precipitation 0.52  
Year to date precipitation 0.52  
Sea Level Pressure  
Sea Level Pressure 30.15 in    
Wind  
Wind Speed 2 mph (WSW)    
Max Wind Speed 7 mph    
Max Gust Speed -    
Visibility 4 miles    
Events Fog , Rain    
T = Trace of Precipitation, MM = Missing Value Source: NWS Daily Summary

Daily Weather History Graph

Daily Weather History Graph

Search for Another Location

Airport or City:

Astronomy

Jan. 06, 2013 Rise Set
Actual Time 7:23 AM EST 5:20 PM EST
Civil Twilight 6:56 AM EST 5:48 PM EST
Nautical Twilight 6:24 AM EST 6:19 PM EST
Astronomical Twilight 5:54 AM EST 6:50 PM EST
Moon 1:41 AM EST (1/6) 12:42 PM EST (1/6)
Length of Visible Light 10h 52m
Length of Day
9h 57m
Waning Crescent, 33% of the Moon is Illuminated
Jan 6
Waning Crescent
Jan 11
New
Jan 18
First Quarter
Jan 26
Full
Feb 3
Last Quarter

Hourly Weather History & Observations

Time (EST) Temp. Windchill Dew Point Humidity Pressure Visibility Wind Dir Wind Speed Gust Speed Precip Events Conditions
12:54 AM 42.1 °F 38.4 °F 35.1 °F 76% 30.25 in 10.0 mi South 5.8 mph - N/A   Mostly Cloudy
1:54 AM 43.0 °F - 34.0 °F 71% 30.25 in 10.0 mi Calm Calm - N/A   Mostly Cloudy
2:54 AM 43.0 °F - 36.0 °F 76% 30.24 in 10.0 mi Calm Calm - N/A   Overcast
3:54 AM 44.1 °F - 35.1 °F 71% 30.23 in 10.0 mi Calm Calm - N/A   Overcast
4:54 AM 44.1 °F - 37.0 °F 76% 30.21 in 10.0 mi Calm Calm - N/A   Overcast
5:54 AM 43.0 °F - 39.0 °F 86% 30.20 in 10.0 mi Calm Calm - N/A   Overcast
6:54 AM 43.0 °F 41.3 °F 37.9 °F 82% 30.20 in 10.0 mi SSE 3.5 mph - N/A   Overcast
7:54 AM 44.1 °F - 37.9 °F 79% 30.22 in 10.0 mi Calm Calm - 0.00 in Rain Light Rain
8:54 AM 44.1 °F - 39.9 °F 85% 30.22 in 6.0 mi Calm Calm - 0.01 in Rain Light Rain
9:54 AM 45.0 °F 42.6 °F 39.9 °F 82% 30.23 in 6.0 mi WSW 4.6 mph - 0.00 in Rain Light Rain
10:42 AM 44.6 °F 41.4 °F 42.8 °F 93% 30.23 in 2.5 mi West 5.8 mph - 0.02 in Rain Light Rain
10:54 AM 45.0 °F 41.8 °F 42.1 °F 90% 30.22 in 2.0 mi West 5.8 mph - 0.03 in Rain Light Rain
11:08 AM 44.6 °F 42.2 °F 42.8 °F 93% 30.21 in 3.0 mi Variable 4.6 mph - 0.00 in   Overcast
11:26 AM 44.6 °F 40.7 °F 42.8 °F 93% 30.20 in 4.0 mi West 6.9 mph - 0.00 in   Overcast
11:39 AM 44.6 °F 43.1 °F 42.8 °F 93% 30.19 in 3.0 mi West 3.5 mph - 0.00 in   Overcast
11:43 AM 44.6 °F 43.1 °F 42.8 °F 93% 30.19 in 2.5 mi WSW 3.5 mph - 0.00 in   Overcast
11:54 AM 45.0 °F 43.5 °F 43.0 °F 93% 30.18 in 2.0 mi WSW 3.5 mph - 0.00 in   Overcast
12:06 PM 44.6 °F 42.2 °F 42.8 °F 93% 30.17 in 3.0 mi WSW 4.6 mph - 0.00 in Rain Light Rain
12:28 PM 44.6 °F 43.1 °F 44.6 °F 100% 30.16 in 2.0 mi SSW 3.5 mph - 0.00 in   Overcast
12:54 PM 45.0 °F 43.5 °F 44.1 °F 97% 30.14 in 2.0 mi SSW 3.5 mph - 0.00 in   Overcast
1:18 PM 44.6 °F 43.1 °F 44.6 °F 100% 30.14 in 3.0 mi SW 3.5 mph - N/A   Overcast
1:27 PM 44.6 °F 43.1 °F 44.6 °F 100% 30.13 in 2.5 mi WSW 3.5 mph - N/A   Overcast
1:41 PM 46.4 °F - 44.6 °F 93% 30.13 in 1.5 mi Calm Calm - 0.01 in   Overcast
1:52 PM 46.4 °F - 44.6 °F 93% 30.12 in 2.0 mi Calm Calm - 0.01 in   Overcast
1:54 PM 46.0 °F - 45.0 °F 96% 30.12 in 2.0 mi Calm Calm - 0.01 in   Overcast
2:03 PM 46.4 °F 45.2 °F 44.6 °F 93% 30.11 in 1.5 mi SSE 3.5 mph - 0.00 in Rain Light Rain
2:24 PM 46.4 °F 44.3 °F 44.6 °F 93% 30.11 in 1.8 mi SSE 4.6 mph - 0.00 in   Overcast
2:35 PM 46.4 °F - 44.6 °F 93% 30.11 in 1.2 mi Calm Calm - 0.01 in Rain Light Rain
2:43 PM 46.4 °F - 44.6 °F 93% 30.10 in 2.0 mi Calm Calm - 0.01 in   Overcast
2:54 PM 46.9 °F - 46.0 °F 97% 30.10 in 4.0 mi Calm Calm - 0.01 in   Overcast
3:54 PM 48.0 °F - 46.9 °F 96% 30.10 in 3.0 mi Calm Calm - 0.00 in Rain Light Rain
4:39 PM 46.4 °F 44.3 °F 46.4 °F 100% 30.08 in 2.5 mi South 4.6 mph - 0.01 in Rain Light Rain
4:49 PM 46.4 °F 45.2 °F 46.4 °F 100% 30.09 in 3.0 mi South 3.5 mph - 0.01 in Rain Light Rain
4:54 PM 46.9 °F - 46.0 °F 97% 30.09 in 3.0 mi South 3.5 mph - 0.01 in Rain Light Rain
5:54 PM 46.9 °F - 45.0 °F 93% 30.08 in 7.0 mi Calm Calm - 0.01 in   Overcast
7:01 PM 46.4 °F - 44.6 °F 93% 30.10 in 6.0 mi Calm Calm - N/A   Overcast
7:54 PM 46.0 °F - 45.0 °F 96% 30.12 in 5.0 mi Calm Calm - N/A   Overcast
8:15 PM 46.4 °F - 44.6 °F 93% 30.11 in 5.0 mi Calm Calm - N/A   Mostly Cloudy
8:54 PM 46.0 °F - 45.0 °F 96% 30.12 in 4.0 mi Calm Calm - N/A   Mostly Cloudy
9:01 PM 44.6 °F - 44.6 °F 100% 30.12 in 1.5 mi Calm Calm - N/A   Scattered Clouds
9:06 PM 44.6 °F - 44.6 °F 100% 30.12 in 0.8 mi Calm Calm - N/A   Scattered Clouds
9:13 PM 44.6 °F - 44.6 °F 100% 30.12 in 1.2 mi Calm Calm - N/A   Partly Cloudy
9:28 PM 44.6 °F - 42.8 °F 93% 30.13 in 0.8 mi Calm Calm - N/A   Clear
9:38 PM 42.8 °F 41.1 °F 42.8 °F 100% 30.13 in 0.2 mi NNW 3.5 mph - N/A Fog Fog
10:00 PM 42.8 °F 41.1 °F 41.0 °F 93% 30.14 in 1.2 mi WNW 3.5 mph - N/A   Mostly Cloudy
10:07 PM 42.8 °F - 42.8 °F 100% 30.15 in 2.0 mi Calm Calm - N/A   Mostly Cloudy
10:19 PM 42.8 °F 41.1 °F 42.8 °F 100% 30.15 in 4.0 mi NW 3.5 mph - N/A   Overcast
10:41 PM 44.6 °F 43.1 °F 42.8 °F 93% 30.15 in 2.5 mi NW 3.5 mph - N/A   Scattered Clouds
10:44 PM 42.8 °F - 42.8 °F 100% 30.15 in 1.2 mi Calm Calm - N/A   Scattered Clouds
10:46 PM 42.8 °F - 42.8 °F 100% 30.15 in 0.8 mi Calm Calm - N/A   Mist
10:54 PM 43.0 °F - 42.1 °F 97% 30.15 in 0.2 mi Calm Calm - N/A Fog Fog
11:14 PM 41.0 °F - 39.2 °F 93% 30.16 in 0.2 mi Calm Calm - N/A Fog Fog
11:22 PM 39.2 °F - 39.2 °F 100% 30.16 in 0.2 mi Calm Calm - N/A Fog Fog
11:54 PM 44.1 °F 40.8 °F 44.1 °F 100% 30.18 in 0.2 mi NNW 5.8 mph - N/A Fog Fog